[[{"header":{"parameterUnit":"m.s-1","parameterCategory":1,"la1":30.2991,"la2":30.254,"lo1":-89.0895,"lo2":-89.0444,"dy":0.0017,"dx":0.0017,"nx":28,"ny":28,"refTime":"2024-12-14T09:00:00:Z","depth":0,"parameterNumber":2,"parameterNumberName":"U-component_of_WINDS"},"data":[0,0,0,0,0,0,0,0,0,0,0,0,0,0,0,0,0,0,0,0,0,0,0,0,0,0,0,0,0,0,0,0,0,0,0,0,0,0,0,0,0,0,0,0,0,0,0,0,0,0,0,0,0,0,0,0,0,0,-4.5445,-4.5445,0,-4.5409,-4.5408,-4.5408,-4.5257,-4.5253,-4.525,-4.5246,-4.5211,-4.5213,-4.5215,0,0,0,0,0,0,0,0,0,0,0,0,0,-4.5387,-4.5389,-4.5445,-4.5445,-4.5444,-4.5409,-4.5408,-4.5408,-4.5257,-4.5253,-4.5249,-4.5245,-4.521,-4.5213,-4.5216,0,0,0,0,0,0,0,0,0,0,0,0,0,-4.5388,-4.539,-4.5445,-4.5365,-4.5357,-4.5409,-4.5408,-4.5408,-4.5258,-4.5253,-4.5248,-4.5243,-4.5209,-4.5213,-4.5216,-4.5343,0,0,-4.5227,-4.5228,0,0,0,0,0,0,0,0,-4.5388,-4.539,-4.5377,-4.5371,-4.5362,-4.5332,-4.5374,-4.5386,-4.526,-4.5296,-4.5246,-4.524,-4.5256,-4.5255,-4.5259,-4.5341,-4.5339,-4.5227,-4.5229,-4.5231,-4.5231,0,0,0,0,0,0,0,-4.5388,-4.5391,-4.5431,-4.5377,-4.5368,-4.5332,-4.5326,-4.5376,-4.5306,-4.5292,-4.5281,-4.5279,-4.525,-4.5257,-4.5258,-4.5339,-4.5227,-4.523,-4.5232,-4.5233,-4.5524,-4.5529,0,0,0,0,0,0,-4.5399,-4.5392,-4.5432,-4.543,-4.5363,-4.5337,-4.533,-4.5347,-4.5305,-4.5293,-4.5283,-4.5272,-4.5253,-4.5254,-4.5256,-4.5402,-4.523,-4.5234,-4.5236,-4.5518,-4.5525,-4.5531,0,0,0,0,0,0,-4.5399,-4.5404,-4.5433,-4.5408,-4.5409,-4.5343,-4.5363,-4.5349,-4.5355,-4.5298,-4.5285,-4.5303,-4.5249,-4.5251,-4.5322,-4.5398,-4.5235,-4.5238,-4.5511,-4.552,-4.5528,-4.5695,0,0,0,0,0,0,-4.5398,-4.5405,-4.5452,-4.541,-4.5411,-4.55,-4.5368,-4.5352,-4.5361,-4.5346,-4.5312,-4.5302,-4.5245,-4.5318,-4.5326,-4.54,-4.5241,-4.5504,-4.5515,-4.5525,-4.5682,-4.5708,-4.573,0,0,0,0,0,-4.5396,-4.5501,-4.5455,-4.5461,-4.5468,-4.5505,-4.5505,-4.5437,-4.5368,-4.5415,-4.5378,-4.5303,-4.5389,-4.5326,-4.5334,-4.5411,-4.5499,-4.5512,-4.5524,-4.5672,-4.5703,-4.573,0,0,0,0,0,0,-4.5553,-4.5494,-4.5442,-4.5536,-4.5527,-4.5479,-4.5536,-4.5473,-4.5483,-4.5468,-4.5384,-4.5378,-4.5462,-4.5443,-4.5375,-4.5532,-4.5431,-4.5446,-4.5541,-4.557,-4.5594,-4.5597,-4.5244,0,0,0,0,0,-4.5599,-4.5633,-4.5579,-4.5668,-4.5665,-4.5603,-4.5616,-4.5564,-4.5551,-4.5547,-4.5515,-4.5507,-4.5531,-4.555,-4.5569,-4.5679,-4.567,-4.5736,-4.576,-4.5779,-4.5793,-4.5851,-4.588,-4.5572,-4.5572,-4.5572,0,0,-4.5693,-4.5665,-4.5692,-4.5698,-4.5685,-4.5724,-4.56,-4.5645,-4.5674,-4.5554,-4.5619,-4.5597,-4.5581,-4.5673,-4.5711,-4.566,-4.5877,-4.5796,-4.5812,-4.5815,-4.5867,-4.5896,-4.5922,-4.5581,-4.5579,-4.5578,0,0,-4.5885,-4.5867,-4.5938,-4.5928,-4.5909,-4.5867,-4.5884,-4.5847,-4.5827,-4.5891,-4.5803,-4.5835,-4.588,-4.5873,-4.5875,-4.6066,-4.5998,-4.6075,-4.62,-4.6257,-4.6281,-4.6303,-4.6372,-4.6397,-4.6089,-4.6089,-4.609,0,-4.6005,-4.6059,-4.5984,-4.6035,-4.6042,-4.5935,-4.6008,-4.6001,-4.5991,-4.5998,-4.594,-4.5994,-4.5976,-4.6065,-4.6112,-4.6117,-4.6135,-4.6078,-4.6284,-4.6304,-4.6323,-4.6388,-4.6414,-4.6099,-4.6098,-4.6097,-4.6096,0,-4.6207,-4.6246,-4.6307,-4.6299,-4.6312,-4.6374,-4.6309,-4.6332,-4.628,-4.6244,-4.6312,-4.6286,-4.63,-4.6317,-4.6266,-4.6399,-4.6368,-4.6299,-4.6196,-4.6363,-4.6423,-4.6447,-4.6113,-4.6109,-4.6106,-4.6104,0,0,-4.6496,-4.6447,-4.6471,-4.6466,-4.6439,-4.6468,-4.6526,-4.6538,-4.6559,-4.6556,-4.6603,-4.6644,-4.658,-4.6583,-4.6531,-4.6581,-4.6736,-4.6505,-4.6504,-4.655,-4.6882,-4.6935,-4.6965,-4.669,-4.6695,-4.6698,-4.6883,0,-4.668,-4.6775,-4.671,-4.6817,-4.6852,-4.6752,-4.6803,-4.6792,-4.6761,-4.6787,-4.6752,-4.6783,-4.6695,-4.6697,-4.6742,-4.6708,-4.6801,-4.6693,-4.6734,-4.6737,-4.6742,-4.6996,-4.7051,-4.7227,-4.6906,-4.691,-4.6913,0,-4.6906,-4.6913,-4.7023,-4.6989,-4.7002,-4.7049,-4.7055,-4.7082,-4.7068,-4.7042,-4.7046,-4.6982,-4.7037,-4.6937,-4.7013,-4.6941,-4.6954,-4.694,-4.6945,-4.6946,-4.6835,-4.7005,-4.7282,-4.7309,-4.6949,-4.6946,-4.6943,0,-4.7106,-4.7143,-4.7214,-4.7213,-4.7176,-4.7211,-4.7197,-4.7178,-4.719,-4.7197,-4.7204,-4.7218,-4.7226,-4.7238,-4.7179,-4.7111,-4.7264,-4.7158,-4.7244,-4.7246,-4.7281,-4.728,-4.7565,-4.729,-4.7289,-4.7289,-4.7288,0,-4.7318,-4.739,-4.7304,-4.7348,-4.7425,-4.7351,-4.743,-4.7406,-4.739,-4.7428,-4.7343,-4.738,-4.73,-4.733,-4.7285,-4.7356,-4.736,-4.7341,-4.7328,-4.7349,-4.7351,-4.7356,-4.7343,-4.7295,-4.7294,-4.7293,-4.7291,0,-4.7555,-4.75,-4.7571,-4.753,-4.7521,-4.7581,-4.7546,-4.7585,-4.7548,-4.7598,-4.7605,-4.7548,-4.7579,-4.7521,-4.7545,-4.7515,-4.7614,-4.7582,-4.7619,-4.7609,-4.7699,-4.7692,-4.7998,-4.8034,-4.7736,-4.7739,-4.7741,0,-4.7694,-4.7746,-4.7711,-4.773,-4.7721,-4.7753,-4.7765,-4.7695,-4.7711,-4.77,-4.7742,-4.7765,-4.778,-4.7835,-4.7796,-4.7814,-4.7782,-4.7888,-4.7784,-4.7804,-4.7784,-4.7782,-4.7787,-4.791,-4.7913,-4.7916,-4.7919,0,-4.7946,-4.7916,-4.7937,-4.7949,-4.7966,-4.7972,-4.7972,-4.7993,-4.7918,-4.7941,-4.7971,-4.7983,-4.8008,-4.8033,-4.8042,-4.8028,-4.7962,-4.7952,-4.7973,-4.7994,-4.8014,-4.8005,-4.7677,-4.7945,-4.7942,-4.794,-4.7939,-4.7938,-4.8138,-4.8181,-4.8163,-4.8189,-4.8182,-4.8184,-4.8219,-4.8187,-4.8211,-4.8225,-4.8182,-4.8223,-4.821,-4.8215,-4.8209,-4.824,-4.8193,-4.8224,-4.8231,-4.824,-4.8255,-4.8009,-4.8242,-4.8241,-4.824,-4.8239,-4.8239,0,-4.8386,-4.837,-4.8395,-4.8398,-4.8419,-4.8354,-4.8351,-4.8373,-4.841,-4.8403,-4.842,-4.8456,-4.848,-4.8444,-4.8463,-4.8495,-4.8465,-4.8502,-4.8499,-4.8498,-4.8295,-4.8275,-4.8526,-4.8526,-4.8526,-4.8526,-4.8526,-4.8526,-4.8517,-4.8587,-4.8556,-4.8621,-4.8604,-4.8644,-4.8648,-4.865,-4.8644,-4.8688,-4.8707,-4.8683,-4.8665,-4.8681,-4.8702,-4.869,-4.8701,-4.875,-4.8728,-4.854,-4.8512,-4.8485,-4.8466,-4.8753,-4.8753,-4.8927,-4.8929,-4.893]},{"header":{"parameterUnit":"m.s-1","parameterCategory":1,"la1":30.2991,"la2":30.254,"lo1":-89.0895,"lo2":-89.0444,"dy":0.0017,"dx":0.0017,"nx":28,"ny":28,"refTime":"2024-12-14T09:00:00:Z","depth":0,"parameterNumber":3,"parameterNumberName":"V-component_of_WINDS"},"data":[0,0,0,0,0,0,0,0,0,0,0,0,0,0,0,0,0,0,0,0,0,0,0,0,0,0,0,0,0,0,0,0,0,0,0,0,0,0,0,0,0,0,0,0,0,0,0,0,0,0,0,0,0,0,0,0,0,0,-1.6889,-1.689,0,-1.6927,-1.6928,-1.6928,-1.6903,-1.6902,-1.6901,-1.69,-1.6936,-1.6938,-1.694,0,0,0,0,0,0,0,0,0,0,0,0,0,-1.6793,-1.6795,-1.6889,-1.689,-1.689,-1.6927,-1.6928,-1.6928,-1.6904,-1.6902,-1.6901,-1.69,-1.6935,-1.6938,-1.694,0,0,0,0,0,0,0,0,0,0,0,0,0,-1.6833,-1.6795,-1.6889,-1.6883,-1.6882,-1.6927,-1.6928,-1.6928,-1.6904,-1.6902,-1.6901,-1.6899,-1.6935,-1.6937,-1.694,-1.6993,0,0,-1.695,-1.6951,0,0,0,0,0,0,0,0,-1.6831,-1.6836,-1.6883,-1.6883,-1.6883,-1.6909,-1.6907,-1.695,-1.6904,-1.6896,-1.69,-1.6898,-1.6928,-1.6932,-1.6942,-1.6994,-1.6996,-1.695,-1.6952,-1.6953,-1.6954,0,0,0,0,0,0,0,-1.6828,-1.6835,-1.6904,-1.6884,-1.6884,-1.6877,-1.688,-1.6915,-1.6921,-1.6896,-1.6895,-1.69,-1.6928,-1.6939,-1.6943,-1.6997,-1.695,-1.6952,-1.6954,-1.6955,-1.7091,-1.7093,0,0,0,0,0,0,-1.6826,-1.6833,-1.6903,-1.6905,-1.6852,-1.688,-1.6884,-1.6902,-1.692,-1.6922,-1.6901,-1.6898,-1.6935,-1.6939,-1.6944,-1.7005,-1.6953,-1.6956,-1.6957,-1.709,-1.7092,-1.7094,0,0,0,0,0,0,-1.6824,-1.6833,-1.6902,-1.6869,-1.6877,-1.6883,-1.6904,-1.6904,-1.6916,-1.6924,-1.6925,-1.6912,-1.6934,-1.694,-1.6981,-1.7006,-1.6957,-1.696,-1.7088,-1.709,-1.7093,-1.7129,0,0,0,0,0,0,-1.6821,-1.6832,-1.6853,-1.6869,-1.6879,-1.6939,-1.6906,-1.6906,-1.6921,-1.6918,-1.6934,-1.6936,-1.6933,-1.6976,-1.6984,-1.7009,-1.6962,-1.7085,-1.7089,-1.7092,-1.7125,-1.7132,-1.7138,0,0,0,0,0,-1.6818,-1.6861,-1.6854,-1.6863,-1.6905,-1.694,-1.6945,-1.6943,-1.6923,-1.6944,-1.6949,-1.6935,-1.7002,-1.6981,-1.6989,-1.7016,-1.7084,-1.7088,-1.7092,-1.7122,-1.7131,-1.7138,0,0,0,0,0,0,-1.6847,-1.6863,-1.6856,-1.6906,-1.6922,-1.6936,-1.6962,-1.6952,-1.6973,-1.6969,-1.6964,-1.6968,-1.701,-1.7017,-1.6993,-1.7066,-1.704,-1.7046,-1.706,-1.7068,-1.7075,-1.7072,-1.6965,0,0,0,0,0,-1.686,-1.6888,-1.69,-1.6943,-1.6952,-1.6955,-1.697,-1.6967,-1.6983,-1.6989,-1.6998,-1.7013,-1.7037,-1.7053,-1.7076,-1.7126,-1.7128,-1.7149,-1.7155,-1.7161,-1.7165,-1.719,-1.7199,-1.7107,-1.7107,-1.7107,0,0,-1.6885,-1.6897,-1.6915,-1.6949,-1.6961,-1.6989,-1.6961,-1.6992,-1.7012,-1.6994,-1.7032,-1.7039,-1.7056,-1.7101,-1.7121,-1.7108,-1.7191,-1.7166,-1.717,-1.7172,-1.7195,-1.7204,-1.7212,-1.711,-1.7109,-1.7109,0,0,-1.6946,-1.6959,-1.6995,-1.7008,-1.7027,-1.7029,-1.7037,-1.7053,-1.7057,-1.7096,-1.7082,-1.7105,-1.7148,-1.716,-1.7172,-1.7236,-1.7223,-1.7243,-1.7277,-1.7302,-1.7309,-1.7315,-1.7336,-1.7344,-1.7248,-1.7248,-1.7249,0,-1.6975,-1.7017,-1.7015,-1.7047,-1.7061,-1.7046,-1.7082,-1.7094,-1.7119,-1.7129,-1.7114,-1.7166,-1.7177,-1.7223,-1.7239,-1.725,-1.7258,-1.7241,-1.7308,-1.7315,-1.732,-1.734,-1.7349,-1.7251,-1.725,-1.725,-1.725,0,-1.7051,-1.7081,-1.7108,-1.7133,-1.715,-1.7184,-1.7185,-1.7203,-1.7198,-1.7201,-1.724,-1.7252,-1.7276,-1.7287,-1.7282,-1.7333,-1.7324,-1.7309,-1.7282,-1.7331,-1.735,-1.7358,-1.7254,-1.7253,-1.7252,-1.7252,0,0,-1.7131,-1.7154,-1.7163,-1.7174,-1.7193,-1.7215,-1.7248,-1.7273,-1.7287,-1.7305,-1.733,-1.7367,-1.7353,-1.7366,-1.7362,-1.7384,-1.7432,-1.7366,-1.7366,-1.7376,-1.7486,-1.7496,-1.7505,-1.7424,-1.7425,-1.7427,-1.7484,0,-1.7191,-1.7249,-1.7247,-1.7299,-1.7326,-1.7312,-1.734,-1.7354,-1.7357,-1.7379,-1.7383,-1.7408,-1.7389,-1.7396,-1.7417,-1.7421,-1.7453,-1.7417,-1.7446,-1.7447,-1.7441,-1.7515,-1.7526,-1.758,-1.7492,-1.7493,-1.7494,0,-1.7269,-1.729,-1.7345,-1.736,-1.7371,-1.7396,-1.7417,-1.7439,-1.7454,-1.7455,-1.747,-1.7462,-1.7493,-1.7467,-1.7508,-1.7484,-1.7496,-1.75,-1.7501,-1.7503,-1.7472,-1.7517,-1.7597,-1.7605,-1.7506,-1.7505,-1.7504,0,-1.7319,-1.7361,-1.7399,-1.7409,-1.7427,-1.7445,-1.7453,-1.7467,-1.7481,-1.75,-1.7509,-1.7531,-1.7542,-1.7559,-1.7557,-1.7538,-1.7599,-1.7572,-1.7599,-1.7599,-1.7611,-1.761,-1.7693,-1.7622,-1.7621,-1.7621,-1.7621,0,-1.7386,-1.742,-1.7422,-1.7445,-1.7483,-1.748,-1.7516,-1.7522,-1.7534,-1.7558,-1.7547,-1.7569,-1.7566,-1.7587,-1.7586,-1.7619,-1.7625,-1.7626,-1.7625,-1.7626,-1.7625,-1.7632,-1.7628,-1.7623,-1.7623,-1.7623,-1.7622,0,-1.7448,-1.7451,-1.7491,-1.7505,-1.7509,-1.7536,-1.7547,-1.7568,-1.7571,-1.7601,-1.7607,-1.7611,-1.7636,-1.7636,-1.7664,-1.7663,-1.7704,-1.7699,-1.7699,-1.7697,-1.7724,-1.7721,-1.7812,-1.7823,-1.7746,-1.7747,-1.7748,0,-1.749,-1.7516,-1.7532,-1.7547,-1.7557,-1.7581,-1.7596,-1.7594,-1.7609,-1.7628,-1.7647,-1.767,-1.7689,-1.7729,-1.7733,-1.7754,-1.7749,-1.778,-1.7752,-1.7752,-1.7747,-1.7745,-1.7747,-1.7785,-1.7786,-1.7786,-1.7787,0,-1.7563,-1.7562,-1.7585,-1.7607,-1.7625,-1.7642,-1.7658,-1.7671,-1.767,-1.7688,-1.7713,-1.7728,-1.7757,-1.778,-1.78,-1.7807,-1.7796,-1.7796,-1.7803,-1.7804,-1.7801,-1.7801,-1.7712,-1.7793,-1.7793,-1.7792,-1.7792,-1.7792,-1.7614,-1.7636,-1.7651,-1.7675,-1.7687,-1.7702,-1.7723,-1.7728,-1.7749,-1.7773,-1.777,-1.7798,-1.7811,-1.7837,-1.7846,-1.7866,-1.7855,-1.7866,-1.7868,-1.7871,-1.7873,-1.78,-1.787,-1.787,-1.787,-1.787,-1.787,0,-1.7685,-1.7694,-1.7717,-1.7739,-1.7758,-1.7748,-1.7765,-1.7781,-1.7806,-1.7819,-1.7838,-1.7866,-1.7888,-1.7895,-1.7916,-1.7931,-1.7927,-1.7937,-1.7935,-1.7936,-1.7882,-1.7873,-1.794,-1.794,-1.794,-1.794,-1.794,-1.794,-1.7724,-1.776,-1.7761,-1.7802,-1.781,-1.7838,-1.7848,-1.7861,-1.7872,-1.7904,-1.7923,-1.7927,-1.7938,-1.7959,-1.7979,-1.798,-1.7987,-1.7999,-1.7998,-1.7947,-1.794,-1.7933,-1.7925,-1.8001,-1.8001,-1.8049,-1.805,-1.805]}]]